CDT,Max TemperatureF,Mean TemperatureF,Min TemperatureF,Max Dew PointF,MeanDew PointF,Min DewpointF,Max Humidity, Mean Humidity, Min Humidity, Max Sea Level PressureIn, Mean Sea Level PressureIn, Min Sea Level PressureIn, Max VisibilityMiles, Mean VisibilityMiles, Min VisibilityMiles, Max Wind SpeedMPH, Mean Wind SpeedMPH, Max Gust SpeedMPH,PrecipitationIn, CloudCover, Events, WindDirDegrees
2013-8-1,84,69,53,70,63,54,100,76,51,30.08,29.99,29.89,10,9,1,20,6,29,0.22,3,Rain-Thunderstorm,262
2013-8-2,72,64,56,65,61,56,100,81,61,30.06,29.97,29.90,10,10,8,14,5,17,0.02,4,Rain,317
2013-8-3,76,63,50,59,54,50,100,72,43,30.21,30.16,30.08,10,10,8,13,5,18,0.00,0,,334
2013-8-4,77,64,50,61,56,49,100,75,50,30.23,30.14,30.01,10,10,10,13,5,17,0.00,2,Thunderstorm,169
2013-8-5,83,73,62,70,65,59,100,79,58,29.99,29.90,29.82,10,8,2,17,5,22,T,6,Rain-Thunderstorm,220
2013-8-6,85,70,55,67,63,56,100,72,44,29.87,29.82,29.76,10,6,0,14,6,20,0.00,0,Fog,253
2013-8-7,76,65,54,64,59,53,100,79,57,30.05,29.96,29.82,10,10,7,16,8,22,0.00,4,,351
2013-8-8,76,64,52,65,59,51,97,81,64,30.09,30.03,29.99,10,10,8,16,4,21,0.03,4,Rain,173
2013-8-9,78,67,55,65,60,54,100,75,50,30.16,30.07,30.02,10,8,2,15,7,20,0.00,4,,346
2013-8-10,79,65,50,66,59,50,100,77,53,30.21,30.16,30.08,10,8,2,18,3,24,0.10,4,Rain,247
2013-8-11,72,65,58,68,64,59,100,90,79,30.13,30.07,30.02,9,5,1,14,5,20,0.88,7,Rain-Thunderstorm,129
2013-8-12,77,67,56,60,58,57,100,77,54,30.09,30.06,30.04,10,7,0,14,7,20,0.00,1,Fog,324
2013-8-13,74,63,51,61,55,51,100,75,49,30.20,30.15,30.09,10,10,8,14,6,17,0.00,1,,12
2013-8-14,73,60,47,58,52,46,100,75,49,30.23,30.18,30.13,10,10,9,9,4,13,0.00,1,,182
2013-8-15,72,60,47,59,52,46,100,81,61,30.17,30.13,30.10,10,5,0,12,3,15,0.00,3,Fog,172
2013-8-16,74,61,47,60,53,47,100,79,57,30.22,30.19,30.16,10,6,0,13,3,18,0.00,3,Fog,160
2013-8-17,78,64,50,58,54,50,100,74,47,30.22,30.18,30.12,10,8,2,16,8,21,0.00,1,,180
2013-8-18,79,64,49,60,56,49,100,73,45,30.16,30.11,30.04,10,9,4,18,8,24,0.00,0,,187
2013-8-19,85,72,59,69,65,58,100,81,61,30.05,29.98,29.91,10,8,5,18,10,24,0.00,2,,186
2013-8-20,86,76,66,74,70,66,100,83,65,29.93,29.90,29.86,10,8,5,15,8,20,0.00,2,,191
2013-8-21,84,77,70,76,72,69,100,87,74,29.99,29.93,29.87,9,6,1,14,6,20,0.00,1,Thunderstorm,214
2013-8-22,81,72,62,72,69,65,100,85,69,30.12,30.06,29.98,10,8,2,18,6,21,0.15,4,Rain-Thunderstorm,2
2013-8-23,83,72,60,72,68,60,100,85,69,30.13,30.07,30.01,10,8,2,16,9,22,0.00,2,,139
2013-8-24,86,79,71,74,71,69,100,83,65,30.07,30.02,29.96,10,8,4,25,13,31,0.03,1,Rain,173
2013-8-25,91,81,71,76,73,70,100,78,56,30.06,30.01,29.97,10,8,4,22,13,30,0.00,0,,194
2013-8-26,92,83,73,77,74,70,94,77,59,30.01,29.95,29.88,10,10,8,17,11,23,0.00,0,,198
2013-8-27,91,83,74,77,72,67,100,80,59,29.90,29.85,29.82,10,10,8,17,8,26,0.00,0,,231
2013-8-28,92,81,70,80,75,70,100,83,66,30.01,29.95,29.90,10,6,0,10,4,13,0.00,2,Fog,134
2013-8-29,91,79,67,73,70,66,100,74,47,30.00,29.94,29.87,10,9,6,15,7,22,0.00,0,,193
2013-8-30,86,75,63,74,70,64,100,83,65,29.91,29.88,29.86,10,10,7,16,8,21,0.00,2,,1
2013-8-31,88,74,60,71,66,60,100,75,50,29.89,29.84,29.76,10,10,6,18,4,24,0.03,0,,285